Dewpoint
58 60 61 62 63 62 63 64 64 64 65 65 65 64 64 65 67 68 69 70 71 72 73 73 73 73 73 73 73 74 73 73 73 72 71 71 71 72 72 72 72 74 72 72 74 74 76 77 77 76 77 77 76 77 77 78 78 77 78 78 78 77 77
55 56 56 60 62 63 64 65 65 64 64 65 65 66 64 65 67 67 69 71 71 72 72 72 73 73 73 73 73 74 73 73 73 73 72 72 72 73 72 73 73 75 75 74 74 76 76 76 76 76 76 76 76 77 77 77 78 77 76 77 76 77 77
55 55 56 57 58 61 64 64 65 64 65 64 64 64 64 66 67 68 69 69 70 71 71 72 72 72 73 73 73 73 73 72 72 72 71 70 70 68 71 73 73 72 73 74 75 74 75 75 76 76 76 76 74 77 77 77 78 77 77 77 76 75 77
55 55 56 57 59 61 63 64 64 64 64 63 64 64 64 67 67 68 68 68 69 70 71 71 71 71 72 73 73 73 73 73 72 71 70 70 70 69 71 72 73 72 73 73 73 73 73 75 75 76 76 76 76 76 76 76 76 77 77 77 76 76 76
54 55 55 56 57 60 61 62 63 65 63 63 64 65 65 65 65 65 66 67 67 68 69 69 69 70 71 71 71 71 72 72 72 71 71 70 71 71 70 69 70 71 71 72 74 75 76 75 74 75 75 76 76 76 76 76 76 77 77 77 76 76 75
52 53 54 55 56 58 61 61 62 63 63 63 63 63 63 63 63 63 64 66 66 67 69 69 69 70 70 70 70 70 71 72 72 72 71 71 71 69 69 69 69 70 70 71 72 73 74 74 74 75 74 74 74 74 74 75 75 75 76 77 76 75 73
51 52 53 55 56 57 59 62 61 61 63 63 63 63 63 62 62 62 63 64 65 67 67 67 68 69 70 70 70 71 71 70 71 71 70 70 70 70 69 69 70 69 69 72 72 73 73 74 75 75 75 74 74 73 75 76 75 75 76 77 77 77 76
50 51 52 53 54 56 57 59 60 61 62 63 63 63 63 62 62 61 62 62 65 65 66 66 67 69 70 70 70 70 70 70 70 70 70 69 69 69 69 69 69 70 71 70 72 73 72 73 73 74 74 74 74 75 75 76 77 75 75 76 76 76 74
49 50 50 51 53 54 56 58 59 60 61 63 64 64 63 62 63 66 67 69 66 65 65 65 66 67 70 70 70 70 69 69 70 70 70 69 68 68 67 68 68 69 69 68 68 72 72 72 72 74 75 74 74 76 75 76 75 75 75 76 76 76 74
50 50 50 50 52 53 55 56 58 59 59 60 62 64 64 63 65 66 70 71 70 65 71 69 67 67 69 69 69 69 69 70 69 68 68 67 67 67 67 66 67 68 68 67 66 68 71 72 72 74 75 74 75 75 75 75 75 75 75 75 76 76 76
49 51 51 50 51 52 53 54 56 58 58 60 60 59 62 66 68 69 69 69 67 65 69 65 65 66 67 68 67 68 69 68 68 68 68 67 67 67 66 66 66 67 67 66 66 67 69 72 73 74 74 72 73 74 74 74 75 75 74 74 74 75 74
49 50 50 51 51 52 53 54 54 56 57 58 57 58 59 61 64 66 69 67 66 68 69 67 65 65 66 66 66 68 68 68 68 67 67 67 67 66 66 66 66 66 66 66 66 67 67 69 70 71 73 73 73 73 74 74 75 75 74 72 73 74 74
48 49 50 50 51 52 53 54 54 55 56 55 55 56 57 58 59 61 67 67 65 66 66 67 66 66 65 66 66 67 68 67 68 68 67 68 67 67 67 66 66 66 65 66 66 66 66 67 69 71 71 73 73 72 73 74 73 75 75 74 73 74 74
51 48 49 50 50 51 52 53 53 53 54 54 54 54 56 57 58 59 61 62 64 65 65 65 66 66 66 67 67 68 67 68 68 69 69 69 70 69 67 67 66 67 67 67 67 66 66 66 67 69 70 71 71 72 73 74 73 75 75 74 73 73 73
48 48 48 48 50 51 51 52 55 54 53 54 54 54 54 55 57 58 59 61 62 62 63 65 65 65 66 67 67 69 69 70 69 70 70 70 70 70 69 68 68 68 68 68 67 66 65 66 66 67 69 69 70 71 71 70 71 71 73 73 74 73 72
45 46 47 47 49 50 51 51 52 54 55 55 55 54 54 54 55 55 57 58 59 62 63 65 67 66 66 66 67 69 70 71 71 71 71 71 71 72 70 69 69 68 69 68 68 68 68 68 67 66 67 68 70 70 69 70 70 70 67 68 72 73 71
44 44 45 46 47 48 50 51 52 52 53 54 55 55 55 55 55 55 55 57 58 60 62 63 65 67 66 66 67 69 71 72 72 72 72 72 72 72 72 71 69 69 70 69 69 69 70 68 67 65 65 65 67 68 67 67 67 66 63 64 66 71 73
42 43 44 45 46 47 46 47 50 52 52 52 53 53 54 56 55 54 55 56 57 60 61 63 64 65 69 69 68 70 71 71 72 72 72 72 72 72 72 71 70 70 70 69 68 70 69 68 67 68 66 65 65 65 66 66 65 62 62 62 63 66 71
40 42 42 44 46 47 46 46 47 50 52 53 54 53 53 53 54 56 56 57 57 60 62 64 63 66 69 70 71 70 71 72 72 72 72 72 72 72 72 72 71 70 69 67 68 68 69 69 68 68 67 66 66 65 64 65 63 61 61 61 61 62 66
41 41 41 42 44 45 47 47 47 48 50 53 54 52 53 54 53 54 55 56 58 60 62 63 65 67 67 69 72 72 71 72 71 71 72 73 73 73 72 71 71 70 68 68 69 69 68 67 68 68 69 68 67 68 66 65 63 60 59 59 60 61 63
43 42 42 43 43 43 46 47 48 49 50 52 54 53 52 52 53 53 53 54 56 57 60 61 63 66 66 67 68 70 72 72 72 72 72 73 73 73 72 71 71 70 69 67 67 69 69 67 67 67 68 67 67 67 66 64 61 59 58 57 58 59 61
43 42 42 42 43 44 45 43 46 47 49 52 52 52 52 52 53 53 53 54 54 56 58 61 62 63 64 65 65 66 67 69 71 72 72 72 72 72 72 72 72 72 70 69 67 68 68 68 67 67 67 66 66 65 65 64 59 58 57 57 57 58 65
43 44 43 43 42 42 45 45 44 46 48 48 49 51 52 53 54 53 53 54 54 57 59 59 61 62 62 62 63 64 65 67 68 71 71 72 72 72 71 72 72 72 71 70 68 67 67 67 66 68 66 66 67 66 65 64 61 56 56 56 56 58 67
41 43 43 44 44 43 43 44 44 44 45 45 46 49 50 51 52 53 54 54 53 53 56 57 58 59 60 61 61 62 64 66 67 68 70 72 71 71 71 70 71 70 71 69 68 67 66 67 67 67 67 66 66 65 65 65 63 55 54 54 55 60 68
40 40 42 42 42 41 41 44 45 45 45 44 44 46 48 49 51 52 53 54 54 53 53 55 56 57 58 59 60 61 63 64 66 67 68 70 72 70 70 70 70 70 70 69 69 68 69 68 68 67 68 66 65 66 65 65 63 56 54 53 53 59 68
40 41 41 41 41 41 44 47 46 43 41 41 45 46 46 47 49 52 53 54 53 53 53 54 55 56 57 59 60 61 62 63 65 67 68 68 69 71 72 70 69 70 69 69 68 68 68 67 68 67 67 67 66 65 65 65 66 68 54 53 52 54 67
41 40 40 40 41 46 43 42 42 41 42 43 46 45 45 46 47 49 52 54 54 54 54 54 55 56 58 60 59 59 61 63 64 65 67 68 68 69 70 72 70 69 70 68 68 68 68 68 68 67 67 67 67 66 66 65 66 68 54 52 52 52 56
39 39 40 42 44 45 43 40 42 42 41 44 43 43 44 45 47 50 52 52 53 54 54 55 56 57 58 59 60 60 61 64 66 67 68 69 70 72 72 74 73 72 70 69 69 70 70 70 69 68 68 68 67 68 67 67 65 66 58 53 51 51 51
41 40 39 41 41 40 40 41 41 41 42 42 42 43 44 44 47 49 51 51 54 54 55 55 56 57 57 59 60 61 62 64 66 68 68 69 70 70 71 73 72 73 73 73 72 71 71 72 71 70 69 70 70 69 70 70 70 61 67 55 51 51 50
41 40 40 39 38 40 41 42 44 43 43 42 44 45 45 46 47 49 50 52 53 54 56 56 56 57 57 58 59 60 61 62 64 66 66 67 69 69 69 70 71 73 74 73 73 72 72 72 72 72 71 70 70 70 70 72 71 66 60 64 52 51 50
40 40 40 41 40 43 43 42 43 43 44 43 45 46 47 47 48 49 50 51 53 54 55 56 56 57 56 57 58 60 60 61 63 63 64 64 66 68 69 70 71 72 73 74 73 73 73 73 73 72 72 71 71 71 71 72 72 72 68 59 56 52 51
41 42 42 42 42 42 43 43 43 43 43 45 45 45 48 47 47 48 50 50 52 53 55 56 57 57 57 58 59 60 60 61 61 62 64 65 65 67 70 71 72 72 73 73 72 73 73 73 72 72 72 71 72 72 72 73 73 73 74 65 61 57 53
42 42 43 43 44 45 44 45 44 45 45 45 46 45 45 47 47 49 50 51 51 52 54 56 56 57 57 58 59 60 61 61 61 62 63 64 64 65 67 70 71 72 73 73 72 72 72 72 72 72 71 71 71 72 72 73 73 73 73 73 71 67 64
42 43 44 44 45 45 45 45 45 45 46 46 47 47 47 48 48 48 49 50 51 52 54 56 56 56 56 56 57 58 59 59 61 62 62 62 63 64 65 67 69 69 70 71 72 72 71 71 71 71 71 71 72 72 72 72 73 73 73 72 72 71 69
43 43 44 44 44 45 44 45 45 46 46 45 46 47 47 48 48 48 50 51 52 53 54 55 56 56 56 55 56 57 59 59 60 60 61 62 64 64 65 66 67 68 70 71 72 72 72 72 71 72 73 72 73 73 73 73 73 74 66 74 66 72 73
44 44 42 42 43 43 44 45 46 46 46 46 47 47 48 48 48 49 49 50 51 53 54 55 55 55 56 57 57 56 58 60 60 61 62 62 63 64 65 65 60 65 69 69 67 64 59 58 69 73 73 72 73 74 73 73 74 65 60 59 58 58 60
42 41 41 42 42 43 44 44 46 46 46 47 48 47 47 48 48 49 50 51 52 51 53 54 55 55 54 56 56 57 58 59 60 61 62 63 63 64 64 64 66 56 55 59 63 61 58 57 56 54 56 65 72 71 64 63 61 59 60 55 54 55 54
41 41 42 43 44 44 44 45 46 46 46 46 47 47 48 47 47 49 48 50 51 52 53 54 54 55 55 55 55 56 59 60 60 61 62 63 64 64 65 65 66 67 60 54 55 56 54 54 53 54 55 55 59 66 74 66 57 56 56 52 53 53 52